User: anonymous   Login
Location: Wallingford
(41.4569°N, 72.8236°W)
Time: 07:22:38
(UTC-04:00)
Language:

ISS - Orbit

View from above orbital plane
View from above orbital plane
View from above satellite
View from above satellite

Ground track
Ground track

The orbit data is extracted from the following two-line orbital elements,

1 25544U 98067A   23086.20188432  .00024982  00000-0  45015-3 0  9990
2 25544  51.6429  14.7356 0005804 135.3885   8.0988 15.49616489389078
Epoch (UTC): 27 March 2023 04:50:42
Eccentricity: 0.0005804
inclination: 51.6429°
perigee height: 414 km
apogee height: 422 km
right ascension of ascending node: 14.7356°
argument of perigee: 135.3885°
revolutions per day: 15.49616489
mean anomaly at epoch: 8.0988°
orbit number at epoch: 38907

The dashed part of the orbit path shows where the satellite is in the earth's shadow,  

DLR